[[{"header":{"parameterUnit":"m.s-1","parameterCategory":1,"la1":30.2991,"la2":30.254,"lo1":-89.0895,"lo2":-89.0444,"dy":0.0017,"dx":0.0017,"nx":28,"ny":28,"refTime":"2024-04-09T09:00:00:Z","depth":0,"parameterNumber":2,"parameterNumberName":"U-component_of_WINDS"},"data":[0,0,0,0,0,0,0,0,0,0,0,0,0,0,0,0,0,0,0,0,0,0,0,0,0,0,0,0,0,0,0,0,0,0,0,0,0,0,0,0,0,0,0,0,0,0,0,0,0,0,0,0,0,0,0,0,0,0,-7.3953,-7.3955,0,-7.4064,-7.4065,-7.4066,-7.4043,-7.4041,-7.4039,-7.4037,-7.4144,-7.4149,-7.4153,0,0,0,0,0,0,0,0,0,0,0,0,0,-7.3718,-7.3722,-7.3953,-7.3955,-7.3956,-7.4064,-7.4065,-7.4067,-7.4043,-7.4041,-7.4038,-7.4036,-7.4142,-7.4148,-7.4154,0,0,0,0,0,0,0,0,0,0,0,0,0,-7.3823,-7.3724,-7.3953,-7.3958,-7.3959,-7.4063,-7.4065,-7.4067,-7.4044,-7.4041,-7.4038,-7.4035,-7.414,-7.4147,-7.4154,-7.4259,0,0,-7.4176,-7.4179,0,0,0,0,0,0,0,0,-7.3817,-7.3832,-7.3956,-7.3957,-7.3959,-7.4037,-7.4021,-7.4131,-7.4045,-7.4011,-7.4037,-7.4033,-7.411,-7.412,-7.4147,-7.4264,-7.4269,-7.4177,-7.4181,-7.4184,-7.4186,0,0,0,0,0,0,0,-7.381,-7.3827,-7.3997,-7.3957,-7.396,-7.3953,-7.3964,-7.4042,-7.4076,-7.4014,-7.4013,-7.4026,-7.4111,-7.414,-7.4149,-7.427,-7.4177,-7.4183,-7.4187,-7.419,-7.4479,-7.4482,0,0,0,0,0,0,-7.3802,-7.3821,-7.3993,-7.4,-7.388,-7.3959,-7.3972,-7.4015,-7.4075,-7.4082,-7.4029,-7.4025,-7.4129,-7.4141,-7.4153,-7.4278,-7.4184,-7.4191,-7.4195,-7.4475,-7.4479,-7.4483,0,0,0,0,0,0,-7.3797,-7.3817,-7.3989,-7.391,-7.3932,-7.3967,-7.4014,-7.4019,-7.4048,-7.4087,-7.4092,-7.4053,-7.4127,-7.4143,-7.4233,-7.4282,-7.4194,-7.42,-7.4471,-7.4476,-7.4481,-7.453,0,0,0,0,0,0,-7.379,-7.3816,-7.3856,-7.3911,-7.3936,-7.4069,-7.4018,-7.4023,-7.4061,-7.4057,-7.4111,-7.4117,-7.4126,-7.4223,-7.424,-7.429,-7.4206,-7.4467,-7.4474,-7.448,-7.4524,-7.4537,-7.4547,0,0,0,0,0,-7.3782,-7.3865,-7.3859,-7.388,-7.3988,-7.4072,-7.4085,-7.4096,-7.4065,-7.4106,-7.4131,-7.4115,-7.4275,-7.4232,-7.4252,-7.4304,-7.4464,-7.4472,-7.4479,-7.4519,-7.4534,-7.4547,0,0,0,0,0,0,-7.3811,-7.3872,-7.3866,-7.3969,-7.4016,-7.4067,-7.4119,-7.4112,-7.4166,-7.416,-7.417,-7.4182,-7.4274,-7.4299,-7.425,-7.4409,-7.4364,-7.4376,-7.4388,-7.4403,-7.4414,-7.4404,-7.4212,0,0,0,0,0,-7.3831,-7.3895,-7.3944,-7.4031,-7.4055,-7.4083,-7.412,-7.4125,-7.4172,-7.4191,-7.4223,-7.4268,-7.4328,-7.4367,-7.4425,-7.453,-7.454,-7.4575,-7.4587,-7.4596,-7.4604,-7.466,-7.4676,-7.4508,-7.4508,-7.4508,0,0,-7.387,-7.3911,-7.395,-7.4038,-7.4074,-7.4139,-7.4099,-7.4169,-7.4217,-7.4201,-7.4288,-7.4314,-7.4365,-7.4463,-7.4507,-7.4486,-7.4654,-7.4605,-7.4612,-7.4616,-7.467,-7.4686,-7.47,-7.4513,-7.4512,-7.4512,0,0,-7.3973,-7.4012,-7.4088,-7.4127,-7.4184,-7.4203,-7.4221,-7.4275,-7.4292,-7.438,-7.437,-7.4426,-7.453,-7.4567,-7.4599,-7.4721,-7.4707,-7.4739,-7.4796,-7.485,-7.4863,-7.4875,-7.4916,-7.4931,-7.4749,-7.4749,-7.4749,0,-7.4014,-7.4113,-7.4128,-7.42,-7.4238,-7.423,-7.4306,-7.4342,-7.4414,-7.444,-7.4416,-7.4547,-7.4581,-7.4687,-7.4717,-7.4744,-7.4764,-7.4731,-7.4861,-7.4873,-7.4884,-7.4923,-7.4938,-7.4752,-7.4752,-7.4752,-7.4751,0,-7.4159,-7.4228,-7.4282,-7.4354,-7.4399,-7.4473,-7.4497,-7.4541,-7.4543,-7.4565,-7.4654,-7.4696,-7.4762,-7.4788,-7.479,-7.4894,-7.4879,-7.4859,-7.4813,-7.4903,-7.4939,-7.4955,-7.4757,-7.4756,-7.4755,-7.4754,0,0,-7.428,-7.4362,-7.4382,-7.4414,-7.4478,-7.4531,-7.4605,-7.4671,-7.4707,-7.4759,-7.4818,-7.4909,-7.489,-7.4927,-7.4934,-7.4982,-7.5073,-7.4955,-7.4956,-7.4973,-7.5188,-7.5201,-7.5218,-7.5067,-7.507,-7.5072,-7.5183,0,-7.4387,-7.4518,-7.4535,-7.465,-7.4713,-7.4709,-7.4772,-7.4818,-7.484,-7.4896,-7.4921,-7.4983,-7.4956,-7.4978,-7.5026,-7.5052,-7.5116,-7.5045,-7.512,-7.5122,-7.5103,-7.5238,-7.5251,-7.5354,-7.5198,-7.52,-7.5202,0,-7.4529,-7.4586,-7.4708,-7.4764,-7.4791,-7.4849,-7.4911,-7.4966,-7.5017,-7.503,-7.5073,-7.5074,-7.5149,-7.5105,-7.5206,-7.5157,-7.519,-7.5208,-7.5212,-7.5216,-7.5165,-7.5242,-7.5387,-7.5401,-7.5225,-7.5224,-7.5222,0,-7.4602,-7.471,-7.4797,-7.4825,-7.4893,-7.4934,-7.4963,-7.5012,-7.5052,-7.5107,-7.5132,-7.5195,-7.5228,-7.5276,-7.5293,-7.526,-7.5393,-7.5351,-7.5404,-7.5403,-7.5428,-7.5426,-7.5577,-7.5456,-7.5455,-7.5455,-7.5455,0,-7.4717,-7.4791,-7.483,-7.4883,-7.4966,-7.4986,-7.5067,-7.5095,-7.5139,-7.5196,-7.5197,-7.525,-7.5272,-7.5328,-7.5343,-7.5424,-7.544,-7.545,-7.5452,-7.5448,-7.5446,-7.5466,-7.5458,-7.5459,-7.5458,-7.5457,-7.5457,0,-7.4811,-7.484,-7.4934,-7.4993,-7.5009,-7.5067,-7.5116,-7.5167,-7.5191,-7.5263,-7.5281,-7.5318,-7.5385,-7.5409,-7.5489,-7.5499,-7.5592,-7.559,-7.5575,-7.5574,-7.5625,-7.5619,-7.5791,-7.5814,-7.5681,-7.5682,-7.5683,0,-7.4881,-7.4938,-7.5004,-7.5043,-7.5075,-7.5139,-7.518,-7.5202,-7.5244,-7.5308,-7.5351,-7.5418,-7.5473,-7.558,-7.5612,-7.5674,-7.5671,-7.5728,-7.568,-7.5674,-7.5668,-7.5663,-7.5668,-7.5735,-7.5736,-7.5737,-7.5738,0,-7.5001,-7.5014,-7.5074,-7.514,-7.5189,-7.5241,-7.5292,-7.5324,-7.5353,-7.5401,-7.5471,-7.5513,-7.5597,-7.5663,-7.5727,-7.5756,-7.5751,-7.5754,-7.5769,-7.5763,-7.5751,-7.5755,-7.5595,-7.5748,-7.5747,-7.5747,-7.5746,-7.5746,-7.5083,-7.5133,-7.5188,-7.5255,-7.5296,-7.5344,-7.5395,-7.5426,-7.5485,-7.5556,-7.5566,-7.564,-7.5691,-7.5777,-7.5809,-7.5867,-7.5851,-7.5873,-7.5878,-7.5883,-7.5885,-7.5745,-7.5879,-7.5879,-7.5878,-7.5878,-7.5878,0,-7.5201,-7.5237,-7.5298,-7.537,-7.5423,-7.5419,-7.5475,-7.5518,-7.5584,-7.5633,-7.5688,-7.5768,-7.5833,-7.5872,-7.5937,-7.5975,-7.5974,-7.5991,-7.5986,-7.5993,-7.5897,-7.5876,-7.599,-7.599,-7.599,-7.599,-7.599,-7.599,-7.5268,-7.5353,-7.5372,-7.5478,-7.5513,-7.5587,-7.562,-7.5663,-7.5702,-7.5792,-7.5847,-7.5873,-7.5918,-7.5987,-7.6045,-7.6055,-7.6077,-7.6095,-7.6102,-7.6011,-7.5999,-7.5988,-7.5969,-7.61,-7.6101,-7.6193,-7.6194,-7.6195]},{"header":{"parameterUnit":"m.s-1","parameterCategory":1,"la1":30.2991,"la2":30.254,"lo1":-89.0895,"lo2":-89.0444,"dy":0.0017,"dx":0.0017,"nx":28,"ny":28,"refTime":"2024-04-09T09:00:00:Z","depth":0,"parameterNumber":3,"parameterNumberName":"V-component_of_WINDS"},"data":[0,0,0,0,0,0,0,0,0,0,0,0,0,0,0,0,0,0,0,0,0,0,0,0,0,0,0,0,0,0,0,0,0,0,0,0,0,0,0,0,0,0,0,0,0,0,0,0,0,0,0,0,0,0,0,0,0,0,5.8214,5.8215,0,5.8287,5.8287,5.8288,5.8281,5.8279,5.8278,5.8277,5.8349,5.8352,5.8355,0,0,0,0,0,0,0,0,0,0,0,0,0,5.807,5.8073,5.8214,5.8215,5.8216,5.8286,5.8287,5.8288,5.8281,5.8279,5.8278,5.8277,5.8348,5.8351,5.8355,0,0,0,0,0,0,0,0,0,0,0,0,0,5.8136,5.8073,5.8214,5.8221,5.8222,5.8286,5.8287,5.8289,5.8281,5.8279,5.8278,5.8276,5.8347,5.8351,5.8355,5.8417,0,0,5.8369,5.8371,0,0,0,0,0,0,0,0,5.8133,5.8142,5.8219,5.822,5.8222,5.8273,5.8263,5.8332,5.8281,5.8259,5.8277,5.8275,5.8325,5.8331,5.8348,5.842,5.8423,5.8369,5.8372,5.8374,5.8375,0,0,0,0,0,0,0,5.8128,5.8138,5.8243,5.822,5.8222,5.822,5.8228,5.8276,5.83,5.826,5.826,5.8269,5.8325,5.8344,5.835,5.8424,5.8369,5.8373,5.8376,5.8378,5.8553,5.8555,0,0,0,0,0,0,5.8122,5.8135,5.824,5.8245,5.8172,5.8224,5.8233,5.8258,5.83,5.8304,5.827,5.8268,5.8337,5.8345,5.8352,5.8429,5.8374,5.8378,5.8381,5.8551,5.8554,5.8556,0,0,0,0,0,0,5.8119,5.8131,5.8238,5.819,5.8203,5.8229,5.8257,5.8261,5.8279,5.8307,5.8311,5.8285,5.8336,5.8346,5.8402,5.8431,5.838,5.8384,5.8549,5.8552,5.8555,5.8581,0,0,0,0,0,0,5.8115,5.813,5.8154,5.819,5.8206,5.8286,5.8259,5.8263,5.8287,5.8285,5.8322,5.8326,5.8336,5.8395,5.8406,5.8436,5.8388,5.8547,5.855,5.8554,5.8578,5.8585,5.8591,0,0,0,0,0,5.811,5.8157,5.8155,5.8168,5.8236,5.8288,5.8296,5.8307,5.8289,5.8314,5.8332,5.8325,5.8426,5.8401,5.8413,5.8445,5.8545,5.8549,5.8554,5.8575,5.8584,5.8591,0,0,0,0,0,0,5.8122,5.8162,5.816,5.8221,5.8251,5.8286,5.8317,5.8315,5.835,5.8346,5.8357,5.8365,5.8422,5.8439,5.841,5.8508,5.8483,5.849,5.8495,5.8503,5.851,5.8505,5.8391,0,0,0,0,0,5.8132,5.8171,5.8204,5.8254,5.827,5.8291,5.8314,5.8319,5.8351,5.8363,5.8385,5.8416,5.8455,5.848,5.8517,5.858,5.8589,5.8609,5.8615,5.862,5.8627,5.8664,5.8673,5.8571,5.8571,5.8571,0,0,5.8153,5.8179,5.8203,5.8258,5.8282,5.8323,5.8301,5.8345,5.8375,5.8369,5.8424,5.8442,5.8476,5.8537,5.8565,5.8553,5.8657,5.8626,5.863,5.8633,5.8669,5.8679,5.8688,5.8574,5.8573,5.8573,0,0,5.8211,5.8235,5.8281,5.8306,5.8344,5.8358,5.8369,5.8405,5.8417,5.8472,5.847,5.8506,5.8572,5.8598,5.8619,5.8691,5.8687,5.8703,5.8736,5.8773,5.8781,5.8788,5.8815,5.8825,5.8709,5.8709,5.8709,0,5.8232,5.8294,5.8305,5.835,5.8374,5.8373,5.842,5.8444,5.8491,5.8508,5.8494,5.8579,5.8602,5.867,5.8688,5.8705,5.8719,5.8699,5.8779,5.8786,5.8793,5.8819,5.8829,5.8711,5.871,5.871,5.871,0,5.8319,5.8362,5.8394,5.8442,5.847,5.8516,5.8534,5.8562,5.8566,5.8581,5.8639,5.8667,5.8711,5.8727,5.873,5.8796,5.8788,5.8776,5.8751,5.8805,5.8829,5.8839,5.8713,5.8713,5.8712,5.8712,0,0,5.8386,5.8441,5.8453,5.8476,5.8518,5.8551,5.8598,5.8642,5.8666,5.8699,5.8739,5.8796,5.8787,5.8812,5.8818,5.8849,5.8907,5.8834,5.8835,5.8848,5.8984,5.8993,5.9005,5.8905,5.8906,5.8908,5.8982,0,5.8451,5.8533,5.8546,5.8619,5.866,5.866,5.87,5.8731,5.8747,5.8784,5.8802,5.8844,5.8827,5.8842,5.8874,5.8893,5.8935,5.8888,5.8942,5.8944,5.8935,5.9017,5.9027,5.9095,5.8991,5.8993,5.8994,0,5.8536,5.8574,5.8652,5.8691,5.8708,5.8745,5.8788,5.8823,5.8858,5.8868,5.8897,5.89,5.8949,5.8922,5.899,5.8958,5.8981,5.8995,5.8997,5.9004,5.8973,5.9027,5.9116,5.9127,5.9009,5.9008,5.9007,0,5.8581,5.865,5.8706,5.8725,5.8772,5.8798,5.8818,5.8852,5.8878,5.8916,5.8934,5.8975,5.8999,5.9031,5.9046,5.9025,5.9114,5.9088,5.9125,5.9124,5.9144,5.9143,5.924,5.9157,5.9156,5.9156,5.9156,0,5.8652,5.87,5.8727,5.8762,5.8816,5.883,5.8883,5.8903,5.8933,5.8972,5.8974,5.901,5.9027,5.9066,5.9078,5.9134,5.9144,5.9154,5.9157,5.9155,5.9154,5.917,5.9167,5.9159,5.9158,5.9158,5.9157,0,5.871,5.873,5.8792,5.8832,5.8843,5.8881,5.8915,5.8949,5.8966,5.9016,5.9028,5.9054,5.9101,5.9119,5.9175,5.9183,5.9248,5.9246,5.9237,5.9238,5.9274,5.9271,5.9386,5.9403,5.9308,5.9309,5.9309,0,5.8755,5.8792,5.8837,5.8864,5.8886,5.8928,5.8956,5.8972,5.9001,5.9045,5.9074,5.9121,5.9159,5.9234,5.9258,5.9301,5.9302,5.9339,5.9308,5.9306,5.9304,5.9303,5.9307,5.9345,5.9346,5.9347,5.9347,0,5.8833,5.8842,5.8882,5.8927,5.8961,5.8997,5.9031,5.9053,5.9074,5.9107,5.9155,5.9185,5.9244,5.9291,5.9336,5.9357,5.9357,5.9357,5.9368,5.9367,5.9361,5.9366,5.9254,5.9354,5.9354,5.9353,5.9353,5.9352,5.8888,5.8922,5.8959,5.9005,5.9033,5.9066,5.9101,5.9123,5.9164,5.9214,5.922,5.9273,5.9309,5.937,5.9393,5.9435,5.9425,5.944,5.9445,5.9449,5.9452,5.9353,5.9443,5.9442,5.9442,5.9442,5.9442,0,5.8968,5.8992,5.9034,5.9084,5.912,5.9117,5.9156,5.9187,5.9233,5.9267,5.9305,5.9362,5.9408,5.9437,5.9483,5.9511,5.9512,5.9523,5.9522,5.9527,5.9457,5.9444,5.9522,5.9522,5.9521,5.9521,5.9521,5.9521,5.9014,5.9072,5.9086,5.9159,5.9183,5.9235,5.9258,5.9289,5.9316,5.938,5.9419,5.9437,5.947,5.9519,5.9562,5.9569,5.9586,5.9598,5.9605,5.954,5.9532,5.9524,5.9511,5.9602,5.9602,5.9672,5.9672,5.9673]}]]